Reflectivity
-9 -5 -2 -3 -20 -12 16 -5 9 -15 -2 -3 9 -20 -20 -20 -20 -20 -20 -9 -1 1 -12 -20 -20 -20 -20 -20 -20 -20 -5 -19 -20 -20 -20 -20 -20 -20 -20 -20 -20 -20 -20 -3 -8 -18 -20 -20 -20 -20 -20 -20 -20 -20
0 -1 -18 -4 -20 1 13 5 9 -20 11 -4 1 -19 -13 2 9 -19 -20 -5 8 -7 -9 -20 -20 -20 -20 -20 -20 -8 -20 -20 -20 -20 -9 -20 -20 -20 -20 10 -20 -20 -20 -20 -20 -20 -20 -20 -20 -20 -20 -20 -20 -20
-20 -20 -20 -20 -1 -12 5 4 13 8 8 9 10 -11 -12 7 10 10 -20 -20 2 1 -4 -18 -20 2 -20 -20 -20 -10 -8 -20 -20 -20 -20 -20 -20 -20 -20 -20 -20 -16 -18 -20 -20 -20 -20 -20 -20 -20 -20 -20 -20 -20
-7 9 -19 -19 -18 1 7 1 13 5 5 12 7 -6 -8 -17 11 12 -20 0 20 23 32 27 -16 -4 -20 -19 -6 -17 -19 -20 -20 -20 -19 -11 -9 -20 -8 -20 -20 -20 -13 -20 -20 -20 -20 -20 -20 -20 -20 -20 -20 -20
14 5 -9 9 13 11 9 6 13 8 6 13 1 18 -19 9 5 8 -19 9 26 22 -7 -1 -20 -20 -20 -20 -20 -20 -20 -20 -15 -8 19 3 -19 -20 -20 -20 -20 -20 -20 -18 -20 -0 -20 -20 -20 -20 -20 -20 -20 -20
14 11 19 7 9 9 8 14 11 9 12 7 -3 2 -19 7 14 -15 6 16 23 11 5 18 -18 -20 -20 -20 -8 7 -20 -15 1 15 12 14 1 0 7 1 -20 -20 -20 -20 -20 -20 -20 -20 -20 -20 -20 -20 -20 -20
16 14 1 11 5 6 17 12 -8 14 15 -1 9 14 21 15 -11 -20 27 23 24 -5 2 -13 -18 -17 -20 -20 -20 -20 -13 8 23 21 -1 10 14 9 -12 -1 -20 -7 -20 -20 -20 -20 -20 -20 -20 -20 -20 -20 -20 -20
18 13 -9 5 -1 8 17 6 10 14 -2 -16 6 8 6 3 -20 -5 3 8 8 0 -0 -9 -20 -11 -20 -16 7 22 29 27 24 25 20 -15 -7 -7 16 17 -15 -12 -7 -8 -20 -20 -20 -20 -20 -20 -20 -20 -20 -20
19 12 11 2 9 18 11 -19 7 -17 -20 -20 -20 8 -20 -5 -4 -8 13 13 15 12 -9 -17 -20 -13 -18 14 4 -4 9 17 15 25 27 26 14 31 14 -9 -20 -14 2 -14 -20 -20 -20 -20 -20 -20 -20 -20 -20 -20
3 7 -12 8 -3 13 5 -3 -10 -20 -20 -20 -20 7 17 23 11 6 9 8 2 3 -4 -1 -20 -20 -20 -20 -20 6 14 26 30 17 22 24 22 18 12 -18 -20 -20 -20 -20 -20 -20 -20 -20 -20 -20 -20 -20 -20 -20
7 3 -7 13 6 16 -4 0 -20 -20 -20 -20 -20 -13 1 9 17 24 16 1 -11 -14 -12 -16 -20 -20 -20 -20 -16 -20 -12 10 2 24 23 24 28 18 -20 -20 -20 -20 -20 -20 -20 -20 -20 -20 -20 -20 -20 -20 -20 -14
13 -13 11 23 18 16 -10 -20 -20 -20 -20 -20 -20 -6 24 26 22 13 23 -4 3 -14 -20 -1 -6 -20 -20 -20 -20 -19 -13 -12 -6 16 27 4 -5 -20 -20 -20 -20 -20 -20 -20 -20 -20 -20 -20 -20 -20 -20 -17 -8 1
-6 20 20 28 19 17 -8 -20 -20 -20 1 -20 -20 -18 -5 -13 11 -18 -19 -20 -20 -20 -20 -20 -20 -20 -20 -20 -20 -20 -18 -20 -19 -1 -19 21 -1 -20 -11 -20 -20 -20 3 15 -13 -20 -20 -20 -20 -20 -3 25 7 4
12 24 30 27 20 16 1 -20 -20 -20 -20 -20 -20 -20 -20 -20 -20 -20 -20 -20 -20 -20 -20 -20 -20 -20 -20 -20 -20 -17 -20 -20 -20 -20 -16 -16 -20 -20 -7 6 -2 -20 -13 -7 25 22 18 21 22 24 30 29 29 14
18 27 28 25 27 17 2 -20 -20 -20 -20 -20 -20 -20 -20 -18 -19 -20 -20 -20 -20 -20 -17 -20 -20 -20 -20 -18 -12 -20 -20 -20 -20 -20 -20 -20 -20 -20 -20 -20 -20 -3 -8 -18 11 13 -9 -16 1 -0 7 7 -13 -20
23 28 28 30 24 20 13 1 -20 -20 -20 -20 -20 -20 -20 -20 -20 -17 -16 13 -5 -20 -10 -17 -20 -20 -20 -14 -16 -20 -20 -20 -20 -20 -20 -20 -20 -20 -20 -20 -20 -20 -19 -16 -16 -13 -19 -20 -20 -10 2 21 8 -19
26 26 27 26 20 19 13 13 6 -20 -20 -20 -20 -20 -20 -20 -20 -20 -20 -10 -20 -20 -20 -20 -20 -20 -12 -20 -13 -20 -20 -20 -20 -20 -20 -20 -20 -20 -20 -20 -20 -20 -20 -20 -20 -20 -20 -20 -19 -11 -14 -19 -20 -20
24 21 26 22 15 -2 1 5 4 -12 -18 -10 -20 -20 -20 -20 -20 -20 -20 -7 -19 -13 -5 10 -20 -20 -20 -20 -20 -20 -20 -17 -4 -20 -20 -20 -20 -20 -20 -20 -20 -20 -20 -20 -20 -20 -20 -20 -20 -20 -20 -20 -20 -20
14 24 24 20 4 -4 -0 -1 -6 -17 -20 3 -15 -20 -20 -20 -20 -20 -20 -2 -12 -4 -15 -17 -20 -20 -20 -20 -20 -20 -20 -3 -20 -20 -20 -20 -20 -20 -20 -20 -20 -20 -20 -20 -20 -20 -20 -20 -20 -20 -20 -20 -20 -20
16 21 23 16 -15 -5 -1 -15 -19 -20 -19 -9 -12 -20 -20 -20 -20 -20 -20 -20 -20 -20 -20 -20 -20 -20 -20 -20 -20 -20 -20 -20 -20 -20 -20 -20 -20 -20 -20 -20 -20 -20 -20 -20 -20 -20 -20 -20 -20 -20 -20 -20 -20 -20
17 12 10 3 -20 -20 -20 -20 -20 -20 -20 -20 -20 -20 -20 -20 -20 -20 -20 -16 -20 -20 -20 -20 -20 -20 -20 -20 -20 -20 -20 -20 -20 -20 -20 -20 -20 -20 -20 -20 -20 -20 -20 -20 -20 -13 -19 -20 -20 -20 -20 -20 -20 -20
3 3 -17 -20 -20 -20 -20 -20 -20 -20 -20 -20 -20 -20 -20 -20 -20 -20 -20 -17 -20 -19 -20 -20 -20 -20 -20 -20 -20 -20 -20 -20 -20 -20 -20 -20 -20 -20 -20 -20 -20 -20 -20 -20 -20 -20 -20 -20 -20 -20 -20 -20 -20 -20
6 -20 -20 -20 -20 -20 -20 -20 -20 -20 -20 -20 -20 -20 -20 -20 -20 -20 -20 -20 -8 3 -2 -20 -20 -20 -20 -20 -20 -20 -20 -20 -20 -20 -20 -20 -20 -20 -20 -20 -20 -20 -20 -20 -20 -20 -20 -20 -20 -20 -20 -14 -20 -20
-14 -19 -20 -20 -20 -20 -20 -20 -20 -20 -20 -20 -20 -20 -20 -15 -20 -20 -20 -19 9 -6 -20 -20 -20 -20 -20 -20 -20 -20 -20 -20 -20 -20 -20 -20 -20 -20 -20 -20 -20 -20 -20 -20 -20 -20 -20 -20 -20 -20 -20 -20 -20 -20
14 -12 -20 -20 -20 -20 -20 -20 -20 -20 -20 -20 -20 -20 -20 -20 -20 -20 -20 1 -7 -17 -20 -20 -20 -20 -20 -20 -20 -20 -20 -20 -20 -20 -20 -20 -20 -20 -20 -20 -20 -20 -20 -20 -20 -20 -20 -20 -20 -20 -20 -20 -20 -20
6 -20 -20 -20 -20 -20 -20 -20 -20 -20 -20 -20 -20 -20 -20 -20 -20 -20 -20 -17 -15 -20 -20 -20 -20 -20 -20 -20 -20 -20 -20 -20 -20 -20 -20 -20 -20 -20 -20 -20 -20 -20 -20 -20 -20 -20 -20 -20 -20 -20 -18 -20 -16 2
1 -20 -20 -20 -20 -20 -20 -20 -20 -20 -20 -20 -20 -20 -20 -20 -20 -20 -20 -20 -20 -20 -20 -20 -20 -20 -20 -20 -20 -20 -20 -20 -20 -20 -20 -20 -20 -20 -20 -20 -20 -20 -20 -20 -20 -20 -20 -20 -20 -20 -20 -19 -19 -8
-16 -20 -20 -20 -20 -20 -20 -20 -20 -20 -20 -20 -20 -20 -20 -20 -20 -20 -20 -20 -20 -20 -20 -20 -20 -20 -20 -20 -20 -20 -20 -20 -20 -20 -20 -20 -20 -20 -20 -20 -20 -20 -20 -20 -20 -20 -20 -20 -20 -20 -20 -20 -20 -17
-17 -20 -20 -20 -20 -20 -20 -20 -20 -20 -20 -20 -20 -20 -20 -20 -20 -20 -20 -20 -20 -20 -20 -20 -20 -20 -20 -20 -20 -20 -20 -20 -20 -20 -20 -20 -20 -20 -20 -20 -20 -20 -20 -20 -20 -9 -20 -20 -19 -20 -20 -20 -19 -18
-20 -20 -20 -20 -20 -20 -20 -20 -20 -20 -20 -20 -20 -20 -20 -20 -20 -20 -20 -20 -20 -20 -20 -20 -20 -20 -20 -20 -20 -20 -20 -20 -20 -20 -20 -20 -20 -20 -20 -20 -20 -20 -20 -20 -20 -20 -20 -20 -19 -2 7 -10 -10 -18
-20 -20 -20 -20 -20 -20 -20 -20 -20 -20 -20 -20 -20 -20 -20 -20 -20 -20 -20 -20 -20 -20 -20 -20 -20 -20 -20 -20 -20 -20 -20 -20 -20 -20 -20 -20 -20 -20 -20 -20 -20 -20 -20 -20 -20 -20 -20 -20 -20 -16 -14 -20 -19 -9
-20 -20 -20 -20 -20 -15 -13 -20 -20 -20 -20 -20 -20 -20 -20 -20 -20 -20 -20 -20 -20 -20 -20 -20 -20 -20 -20 -20 -20 -20 -20 -20 -20 -20 -20 -20 -20 -20 -20 -20 -20 -18 -20 -20 -20 -20 -20 -20 -20 -19 -17 -17 -3 -7
-20 -20 -20 -20 -20 -20 -20 -20 -20 -20 -20 -20 -20 -20 -20 -20 -20 -20 -20 -20 -20 -20 -20 -20 -20 -20 -20 -20 -20 -20 -20 -20 -20 -18 -5 -0 2 1 8 -18 -17 -20 -20 -20 -20 -20 -19 -19 -18 -12 -4 -16 -20 -14
Wind_Speed
9 9 9 7 7 8 10 12 10 8 9 9 12 11 13 12 10 5 4 1 1 2 6 3 4 1 1 2 3 3 2 0 1 1 2 2 2 3 3 5 7 8 6 4 4 3 8 3 3 2 3 2 3 3
10 8 8 6 7 9 11 12 10 10 10 9 11 11 13 10 10 5 2 1 0 3 5 3 7 6 3 2 4 1 1 2 3 1 1 1 2 2 2 3 3 5 7 6 7 7 5 3 4 0 1 3 3 3
10 9 7 6 7 9 11 12 13 10 12 12 11 12 13 10 9 6 2 0 2 3 4 3 4 3 1 1 0 4 2 3 1 2 2 2 3 1 2 4 3 5 6 3 1 5 12 9 1 0 1 2 3 3
12 9 7 6 5 10 12 13 15 10 11 14 12 14 12 13 10 8 2 1 1 2 4 2 1 2 1 2 2 1 4 3 3 2 1 2 2 2 2 2 2 5 4 5 5 7 3 3 4 3 2 2 2 4
11 9 8 6 5 12 13 14 13 11 13 13 14 15 15 15 13 6 3 4 5 3 3 3 4 0 1 2 3 3 4 4 2 2 2 3 2 2 2 2 4 4 6 4 5 4 4 5 4 5 5 4 4 6
11 8 8 2 6 13 13 14 11 12 13 14 14 16 15 11 7 2 3 3 6 4 3 1 1 2 1 2 3 2 2 2 2 2 2 2 3 3 2 3 4 2 3 3 3 3 3 2 2 3 3 3 3 6
11 10 3 5 9 12 13 13 12 12 14 14 16 16 11 9 3 3 1 2 6 3 3 2 3 0 3 2 1 1 1 1 2 1 3 2 2 3 3 3 5 9 9 8 7 5 2 4 4 5 5 5 6 5
12 7 2 7 9 11 13 11 12 13 14 15 16 9 5 9 4 2 2 9 3 2 2 1 3 2 4 2 1 2 2 2 3 1 2 3 2 2 4 2 8 10 12 6 8 4 2 4 6 5 4 5 7 6
11 6 6 5 9 11 12 10 13 13 15 15 6 1 3 1 2 1 3 5 2 2 2 1 1 2 2 2 2 2 2 3 2 2 2 1 2 2 4 9 9 10 8 10 8 2 4 3 5 6 5 6 7 6
14 9 3 5 9 10 9 10 12 14 15 5 1 1 2 1 2 1 2 3 2 3 2 2 0 2 2 0 1 1 1 1 2 1 2 1 0 6 6 7 6 9 10 8 6 5 2 2 6 7 7 5 6 8
10 7 2 5 10 11 7 8 10 12 5 2 1 1 1 2 1 2 3 3 3 2 3 3 3 2 1 1 1 1 1 0 2 1 1 1 2 3 7 8 8 9 9 10 8 9 8 6 6 8 8 8 8 9
10 6 4 4 10 11 6 6 7 3 2 3 1 2 1 2 3 2 3 0 3 4 2 3 2 2 1 1 1 1 1 0 3 3 1 1 2 4 7 10 11 11 11 10 6 6 7 6 5 8 8 8 9 9
10 3 4 3 12 10 4 5 5 4 4 1 2 1 1 1 3 4 5 3 2 2 1 1 1 1 1 1 1 1 2 3 2 1 2 1 2 6 8 8 10 10 11 11 9 8 3 3 6 6 7 6 10 10
12 7 7 6 10 14 5 4 3 1 1 1 2 4 4 3 3 2 2 1 2 0 1 2 1 1 1 1 1 1 1 2 1 2 3 1 4 7 8 8 9 12 12 11 9 8 5 3 4 5 7 9 9 10
11 8 4 4 8 4 3 3 1 1 1 3 2 5 4 2 1 1 1 1 2 2 1 1 2 2 2 1 1 1 1 3 4 3 2 2 4 5 7 8 8 9 9 9 10 8 6 2 4 5 6 7 8 9
11 8 3 3 2 5 5 3 2 2 2 1 1 1 2 2 2 1 2 2 1 1 1 1 2 1 3 2 2 4 3 5 3 2 2 2 4 5 5 7 8 8 8 9 8 8 6 3 2 3 5 5 7 10
10 1 8 4 2 0 3 2 2 2 4 1 3 2 1 1 1 1 2 2 1 1 1 1 3 3 1 2 3 3 3 3 3 2 2 2 3 5 5 5 7 9 9 8 8 8 8 6 2 3 5 4 5 6
2 4 10 7 2 1 2 2 2 2 2 3 2 3 2 1 2 2 2 1 2 1 0 1 1 3 4 3 3 2 1 1 0 1 1 2 3 3 3 6 5 6 7 8 6 6 4 4 3 3 2 3 5 5
6 5 9 6 4 3 2 1 2 3 3 1 0 0 2 1 2 2 2 2 2 1 1 1 3 4 4 3 3 3 2 2 1 1 2 3 1 3 5 5 6 7 6 6 6 5 4 5 4 3 3 3 3 4
10 8 8 6 4 2 2 1 1 2 2 2 1 1 2 1 1 2 2 2 1 1 1 4 5 4 4 3 3 2 3 4 3 1 4 3 1 3 4 4 4 6 6 5 4 9 4 4 3 2 3 4 5 6
8 3 7 3 2 3 3 1 2 2 1 1 1 1 0 1 0 1 1 0 1 3 4 5 4 2 2 2 2 3 4 4 4 4 3 3 3 3 3 4 3 4 5 6 6 6 7 5 5 3 3 3 4 4
3 7 2 2 3 3 3 2 1 1 2 1 1 1 1 1 2 3 2 2 5 5 5 4 3 3 3 4 3 3 4 4 3 3 5 5 3 2 2 2 3 4 3 4 7 7 6 5 6 4 4 4 5 4
9 3 2 2 4 4 3 2 2 2 2 2 1 0 2 2 2 1 3 4 5 4 3 3 3 2 4 1 2 2 4 4 3 4 3 3 4 3 4 3 3 3 6 5 3 6 7 11 10 6 4 4 5 5
4 3 4 3 3 3 2 2 1 1 2 1 2 3 2 3 1 2 5 4 4 0 3 5 3 3 2 3 1 3 4 4 3 1 2 2 3 4 4 4 5 5 6 7 5 6 8 8 10 5 4 5 7 7
4 4 6 2 2 4 1 1 1 2 3 3 3 2 2 2 1 4 5 5 2 3 3 3 3 2 4 2 1 3 3 4 4 4 3 4 3 3 4 4 6 6 5 5 6 6 7 8 6 5 5 7 9 9
5 6 8 7 2 5 6 4 4 5 3 2 4 1 1 2 1 8 5 3 3 5 5 7 7 4 3 5 3 2 4 4 3 2 4 5 4 4 4 6 9 6 4 4 3 4 6 10 8 7 6 10 15 10
7 7 3 1 4 4 1 1 1 3 5 5 3 3 3 4 8 6 3 3 3 3 3 5 6 7 5 3 2 3 3 4 5 4 2 3 4 5 6 8 11 6 2 3 4 5 9 9 9 8 7 6 9 9
5 6 9 6 2 2 5 3 5 7 4 3 5 5 7 8 6 4 4 1 1 1 2 1 0 2 3 3 3 3 1 0 2 4 5 5 7 6 7 8 8 19 11 8 9 8 9 9 9 9 9 9 8 8
4 4 6 4 2 3 6 8 6 4 3 5 6 5 5 4 3 2 2 1 1 2 2 1 1 2 2 1 1 2 3 3 2 4 7 8 3 4 4 4 5 5 6 6 13 14 13 11 11 10 10 9 8 7
4 3 5 4 8 8 5 4 2 1 0 1 1 3 3 4 4 2 2 2 3 4 3 2 2 3 3 3 2 4 3 4 5 5 5 8 6 3 3 5 7 8 7 6 7 8 15 13 12 10 11 6 6 7
6 3 4 3 5 0 1 1 2 2 2 1 1 3 4 5 5 4 4 3 3 3 3 2 2 3 4 3 4 1 4 3 5 7 7 7 8 9 10 10 9 8 7 7 7 7 8 9 8 6 9 10 12 11
3 5 5 5 2 1 1 2 1 0 2 2 3 1 3 3 5 5 2 3 3 3 7 5 3 4 5 4 2 3 8 3 4 5 8 8 9 11 11 10 10 8 7 8 7 8 9 11 6 8 10 12 12 12
3 3 3 4 3 2 1 2 2 3 1 2 3 2 2 3 7 4 1 2 3 4 4 4 4 3 3 4 5 4 6 4 8 17 20 20 22 21 10 6 4 6 8 7 7 8 10 8 8 10 11 12 12 12
Wind_Direction
228 244 264 281 295 311 307 308 313 320 314 314 323 323 318 327 341 7 285 90 55 298 281 272 308 23 25 111 146 161 95 302 70 191 186 202 220 255 134 162 164 179 175 197 185 223 268 226 89 222 236 258 252 196
226 235 255 278 299 304 304 304 313 313 310 309 313 308 309 306 319 332 287 3 11 222 275 310 283 278 264 332 128 141 151 181 198 148 157 98 291 321 185 209 148 204 191 180 197 212 246 263 232 43 267 243 251 191
211 228 246 266 287 308 302 300 310 306 311 305 305 303 300 297 295 285 233 328 289 277 268 274 250 196 159 58 280 127 276 185 206 160 145 206 257 147 248 247 210 226 188 234 108 257 249 259 217 295 251 249 253 212
211 213 236 256 294 310 302 301 307 306 303 303 305 297 293 282 276 256 186 156 339 284 264 182 201 98 341 31 84 97 140 92 104 113 172 232 256 153 255 253 276 217 148 209 249 286 275 250 220 199 217 238 210 148
208 207 235 254 351 298 297 299 310 315 301 307 301 301 290 279 262 251 182 209 205 270 317 315 340 50 32 84 118 132 143 126 142 163 192 222 214 173 240 345 247 197 205 182 229 240 208 246 186 168 188 208 191 149
200 211 237 266 304 291 296 299 314 313 309 308 311 302 297 270 235 100 274 178 192 192 270 287 30 188 137 116 128 155 160 149 168 206 204 234 250 199 261 243 261 248 295 219 261 287 221 65 133 154 177 169 155 145
198 209 215 303 281 289 291 308 313 307 310 319 312 303 275 202 138 172 289 354 141 128 253 305 327 150 150 121 139 182 174 191 173 213 211 240 216 195 235 251 318 335 332 292 260 148 227 199 228 172 149 129 111 97
194 203 226 272 289 294 295 317 311 312 321 319 314 332 128 132 97 273 259 210 169 243 255 267 264 337 171 162 235 173 179 170 187 244 240 209 175 173 250 318 342 339 326 6 358 18 341 91 104 110 112 123 111 114
192 191 232 270 288 293 303 316 312 320 324 312 298 159 100 109 192 192 90 125 201 281 281 201 186 220 144 227 199 183 206 202 141 217 231 247 153 204 27 334 334 336 321 304 318 54 109 128 159 158 141 143 136 140
182 179 212 276 288 294 305 310 319 327 324 310 163 201 191 195 89 155 171 191 209 199 224 246 194 257 136 211 258 228 194 223 220 232 323 251 80 121 28 346 301 310 306 307 299 263 301 242 200 192 191 175 160 156
156 166 162 286 297 304 308 327 333 338 355 42 148 223 332 346 222 212 179 186 188 233 203 228 188 199 284 157 256 339 236 261 258 179 236 203 175 331 334 324 316 314 307 286 249 257 258 237 196 187 183 176 161 158
177 168 196 310 301 303 313 329 357 41 268 185 217 288 273 218 221 203 191 75 179 221 195 175 196 204 263 88 101 332 219 136 250 140 243 224 117 327 332 329 329 329 323 314 329 313 261 241 206 177 164 158 158 145
162 170 108 289 305 312 304 321 336 277 300 82 221 104 167 212 206 208 186 206 213 174 205 106 165 178 132 52 88 138 212 235 118 172 235 163 349 332 331 329 329 328 337 339 348 351 357 105 109 124 127 136 144 150
163 194 190 233 282 304 281 314 316 350 256 191 153 173 195 192 234 206 171 115 42 61 196 120 87 85 37 113 198 235 212 62 266 243 228 58 335 323 330 334 335 334 340 335 346 346 1 124 136 146 161 152 155 158
171 216 180 278 284 304 333 317 299 77 199 178 166 205 199 187 70 99 68 64 352 296 266 108 68 81 27 340 190 332 193 235 227 214 95 252 321 322 332 342 339 337 336 337 341 344 346 2 152 146 157 166 161 152
198 207 198 190 82 358 2 3 55 87 22 124 297 208 209 135 164 178 120 123 303 315 290 42 99 125 221 209 193 230 219 224 211 150 217 283 330 325 329 338 340 335 334 335 338 337 333 334 198 171 138 157 163 164
133 214 169 185 184 52 64 78 65 52 165 174 264 223 122 141 162 120 131 136 106 277 200 134 184 204 103 207 234 213 221 151 161 207 226 236 292 306 317 321 332 337 337 339 338 341 333 335 102 136 170 179 154 155
119 182 165 188 166 98 55 50 87 108 230 250 114 268 143 99 109 92 102 54 100 97 269 228 99 205 222 210 238 196 129 132 115 229 242 276 299 303 329 322 323 324 326 326 325 313 324 326 238 228 152 143 123 133
141 164 175 187 147 107 109 2 83 202 239 264 90 302 75 63 82 79 89 77 78 86 324 229 219 202 228 196 162 161 149 168 177 257 280 279 227 346 325 312 320 327 321 325 328 320 308 299 268 236 185 167 171 164
160 179 166 124 128 106 77 294 59 131 205 249 36 76 102 78 45 40 61 60 316 56 236 220 220 206 184 203 198 146 144 154 135 313 292 308 322 347 311 298 324 327 318 311 321 337 327 313 298 235 198 187 167 183
91 86 61 63 48 68 112 117 11 184 211 127 290 86 55 17 143 121 78 219 183 215 243 230 233 191 112 125 127 126 143 156 188 189 210 267 260 249 283 304 319 303 312 322 318 316 331 293 281 252 215 211 200 188
92 95 83 8 75 25 72 346 166 275 106 201 74 74 152 206 207 207 177 184 228 224 201 192 199 153 144 171 189 182 161 167 191 227 261 273 267 290 281 269 306 288 282 296 305 302 295 296 292 242 216 219 195 171
104 75 47 56 62 53 246 22 75 320 151 242 73 142 247 229 227 73 244 232 250 228 184 167 164 141 143 97 125 162 180 173 205 213 240 258 269 263 273 263 245 263 292 281 267 293 290 293 297 279 220 203 169 184
80 112 143 178 117 223 40 340 328 76 30 202 190 251 242 208 62 205 253 242 234 199 155 173 131 101 63 36 234 227 208 174 196 221 222 208 275 269 246 273 273 251 248 279 274 277 290 286 288 274 202 185 189 188
130 234 126 233 321 88 138 258 253 122 255 201 198 282 266 87 163 236 237 256 225 218 185 151 151 158 162 210 270 254 227 162 192 226 235 206 227 294 280 250 263 260 258 262 273 282 290 294 283 251 209 198 199 196
204 205 175 188 237 159 189 161 197 204 189 204 222 104 60 131 243 243 234 225 214 188 178 185 183 168 243 200 184 197 236 181 146 207 250 198 191 197 242 287 300 292 228 235 241 265 296 298 283 255 221 221 215 196
198 209 203 136 143 117 96 15 60 152 184 205 198 148 137 221 238 246 263 223 205 213 198 175 169 182 197 188 215 217 184 166 181 210 214 193 207 210 211 248 265 257 233 238 250 257 277 280 288 268 238 218 215 197
181 164 170 182 151 160 155 171 181 203 207 189 126 187 203 208 240 238 217 275 270 63 69 42 10 145 149 188 187 137 257 6 308 280 265 247 235 230 231 242 251 267 269 258 255 251 248 252 255 266 249 227 217 193
164 162 115 130 125 185 206 191 210 213 170 158 175 217 237 235 241 242 260 197 106 108 115 158 269 44 45 12 203 197 164 150 90 308 292 287 309 290 232 231 244 249 252 252 273 281 278 270 249 239 243 227 215 182
223 162 111 152 162 207 220 188 211 168 96 139 226 318 296 275 254 192 148 133 168 206 202 177 163 156 202 169 282 312 242 191 188 189 243 272 259 244 254 259 263 262 254 241 255 270 281 284 278 271 224 190 159 162
135 106 89 142 203 190 88 22 11 35 38 6 336 180 253 301 298 233 208 195 154 133 141 192 236 213 173 192 195 233 294 263 203 228 243 264 272 274 272 269 264 257 246 245 248 255 258 269 272 233 156 158 173 168
119 164 141 145 194 124 78 80 68 81 325 14 276 298 310 337 269 269 189 124 122 185 229 199 184 243 210 210 203 231 249 260 269 272 274 271 268 262 258 261 263 244 233 237 239 244 249 260 214 177 167 164 167 163
70 69 74 104 88 153 222 128 41 321 281 258 256 208 231 235 249 281 290 181 160 193 202 204 209 197 197 203 220 245 264 240 280 296 297 299 299 302 288 260 228 218 223 232 238 239 248 200 180 167 158 157 155 153